When you browse on this site, cookies collect data to enhance your experience and personalize the content and advertising you see.
Visit our Privacy Policy to learn more. By continuing to use the site, you agree to this use of cookies and data.
  • In Hungary
  • List of Countries
  • For 7 days
  • Water Temperature
  • Satellite Maps
  • Weather Map
  • News
  • Weather Widgets
  • user-avatar
    Login

    Hourly Weather Frondenberg

    Today, 22 February, Friday

    Time Temperature Precipitation Wind Pressure Humidity
    00:00 +8°C° 0 mm 2 mps 760 mmHg 90%
    01:00 +9°C° 0 mm 1 mps 761 mmHg 93%
    02:00 +9°C° 0 mm 1 mps 761 mmHg 94%
    03:00 +9°C° 0 mm 1 mps 761 mmHg 95%
    04:00 +9°C° 0 mm 1 mps 761 mmHg 96%
    05:00 +9°C° 0 mm 1 mps 761 mmHg 97%
    06:00 +9°C° 0 mm 1 mps 762 mmHg 97%
    07:00 +9°C° 0 mm 1 mps 762 mmHg 98%
    08:00 +9°C° 0 mm 1 mps 763 mmHg 95%
    09:00 +9°C° 0 mm 1 mps 763 mmHg 93%
    10:00 +8°C° 0 mm 2 mps 763 mmHg 91%
    11:00 +9°C° 0 mm 2 mps 764 mmHg 87%
    12:00 +9°C° 0 mm 2 mps 764 mmHg 83%
    13:00 +9°C° 0 mm 2 mps 765 mmHg 79%
    14:00 +10°C° 0 mm 2 mps 765 mmHg 77%
    15:00 +10°C° 0 mm 2 mps 765 mmHg 75%
    16:00 +10°C° 0 mm 2 mps 765 mmHg 72%
    17:00 +9°C° 0 mm 2 mps 765 mmHg 76%
    18:00 +8°C° 0 mm 2 mps 766 mmHg 79%
    19:00 +9°C° 0 mm 1 mps 766 mmHg 83%
    20:00 +7°C° 0 mm 2 mps 766 mmHg 85%
    21:00 +6°C° 0 mm 2 mps 766 mmHg 87%
    22:00 +6°C° 0 mm 2 mps 767 mmHg 89%
    23:00 +5°C° 0 mm 2 mps 767 mmHg 88%

    Tomorrow, 23 February, Saturday

    Time Temperature Precipitation Wind Pressure Humidity
    00:00 +5°C° 0 mm 2 mps 767 mmHg 88%
    01:00 +4°C° 0 mm 2 mps 767 mmHg 87%
    02:00 +4°C° 0 mm 2 mps 767 mmHg 82%
    03:00 +3°C° 0 mm 2 mps 767 mmHg 78%
    04:00 +3°C° 0 mm 2 mps 767 mmHg 73%
    05:00 +3°C° 0 mm 2 mps 767 mmHg 72%
    06:00 +3°C° 0 mm 1 mps 767 mmHg 70%
    07:00 +3°C° 0 mm 1 mps 767 mmHg 69%
    08:00 +4°C° 0 mm 1 mps 767 mmHg 62%
    09:00 +5°C° 0 mm 1 mps 767 mmHg 55%
    10:00 +6°C° 0 mm 1 mps 767 mmHg 48%
    11:00 +7°C° 0 mm 2 mps 767 mmHg 44%
    12:00 +9°C° 0 mm 2 mps 767 mmHg 40%
    13:00 +10°C° 0 mm 2 mps 767 mmHg 36%
    14:00 +12°C° 0 mm 2 mps 766 mmHg 36%
    15:00 +12°C° 0 mm 2 mps 766 mmHg 37%
    16:00 +12°C° 0 mm 2 mps 766 mmHg 38%
    17:00 +9°C° 0 mm 2 mps 766 mmHg 43%
    18:00 +8°C° 0 mm 2 mps 766 mmHg 48%
    19:00 +7°C° 0 mm 1 mps 766 mmHg 52%
    20:00 +6°C° 0 mm 1 mps 766 mmHg 51%
    21:00 +6°C° 0 mm 1 mps 767 mmHg 49%
    22:00 +5°C° 0 mm 1 mps 767 mmHg 48%
    23:00 +5°C° 0 mm 1 mps 767 mmHg 45%

    Day after tomorrow, 24 February, Sunday

    Time Temperature Precipitation Wind Pressure Humidity
    00:00 +5°C° 0 mm 1 mps 767 mmHg 43%
    01:00 +4°C° 0 mm 1 mps 767 mmHg 41%
    02:00 +4°C° 0 mm 1 mps 767 mmHg 40%
    03:00 +4°C° 0 mm 1 mps 767 mmHg 39%
    04:00 +4°C° 0 mm 1 mps 767 mmHg 38%
    05:00 +4°C° 0 mm 1 mps 767 mmHg 37%
    06:00 +4°C° 0 mm 1 mps 767 mmHg 37%
    07:00 +4°C° 0 mm 1 mps 767 mmHg 36%
    08:00 +5°C° 0 mm 1 mps 767 mmHg 35%
    09:00 +7°C° 0 mm 1 mps 767 mmHg 34%
    10:00 +8°C° 0 mm 1 mps 767 mmHg 32%
    11:00 +10°C° 0 mm 1 mps 767 mmHg 30%
    12:00 +12°C° 0 mm 1 mps 767 mmHg 28%
    13:00 +14°C° 0 mm 1 mps 767 mmHg 26%
    14:00 +14°C° 0 mm 1 mps 767 mmHg 29%
    15:00 +14°C° 0 mm 1 mps 767 mmHg 32%
    16:00 +14°C° 0 mm 1 mps 767 mmHg 35%
    17:00 +13°C° 0 mm 1 mps 767 mmHg 40%
    18:00 +11°C° 0 mm 1 mps 767 mmHg 45%
    19:00 +9°C° 0 mm 1 mps 767 mmHg 49%
    20:00 +9°C° 0 mm 1 mps 767 mmHg 49%
    21:00 +8°C° 0 mm 1 mps 767 mmHg 49%
    22:00 +8°C° 0 mm 1 mps 768 mmHg 49%
    23:00 +7°C° 0 mm 1 mps 768 mmHg 49%

    25 February, Monday

    Time Temperature Precipitation Wind Pressure Humidity
    00:00 +7°C° 0 mm 1 mps 768 mmHg 49%
    01:00 +7°C° 0 mm 1 mps 768 mmHg 49%
    02:00 +7°C° 0 mm 1 mps 768 mmHg 48%
    03:00 +7°C° 0 mm 1 mps 768 mmHg 48%
    04:00 +6°C° 0 mm 0 mps 768 mmHg 48%
    05:00 +7°C° 0 mm 1 mps 768 mmHg 49%
    06:00 +7°C° 0 mm 1 mps 768 mmHg 50%
    07:00 +7°C° 0 mm 1 mps 768 mmHg 51%
    08:00 +8°C° 0 mm 1 mps 768 mmHg 52%
    09:00 +9°C° 0 mm 1 mps 768 mmHg 52%
    10:00 +10°C° 0 mm 1 mps 768 mmHg 53%
    11:00 +12°C° 0 mm 1 mps 768 mmHg 50%
    12:00 +14°C° 0 mm 1 mps 768 mmHg 47%
    13:00 +16°C° 0 mm 1 mps 768 mmHg 43%
    14:00 +16°C° 0 mm 1 mps 768 mmHg 44%
    15:00 +18°C° 0 mm 1 mps 767 mmHg 46%
    16:00 +18°C° 0 mm 1 mps 767 mmHg 47%
    17:00 +15°C° 0 mm 1 mps 767 mmHg 53%
    18:00 +13°C° 0 mm 1 mps 767 mmHg 60%
    19:00 +11°C° 0 mm 1 mps 767 mmHg 66%
    20:00 +11°C° 0 mm 1 mps 767 mmHg 68%
    21:00 +10°C° 0 mm 1 mps 767 mmHg 69%
    22:00 +10°C° 0 mm 1 mps 767 mmHg 70%
    23:00 +9°C° 0 mm 1 mps 767 mmHg 70%

    26 February, Tuesday

    Time Temperature Precipitation Wind Pressure Humidity
    00:00 +9°C° 0 mm 1 mps 767 mmHg 70%
    01:00 +9°C° 0 mm 1 mps 766 mmHg 69%
    02:00 +9°C° 0 mm 1 mps 766 mmHg 69%
    03:00 +9°C° 0 mm 1 mps 766 mmHg 70%
    04:00 +8°C° 0 mm 1 mps 765 mmHg 70%
    05:00 +7°C° 0 mm 0 mps 765 mmHg 71%
    06:00 +7°C° 0 mm 0 mps 765 mmHg 72%
    07:00 +7°C° 0 mm 0 mps 765 mmHg 73%
    08:00 +8°C° 0 mm 0 mps 765 mmHg 68%
    09:00 +10°C° 0 mm 0 mps 765 mmHg 64%
    10:00 +11°C° 0 mm 0 mps 765 mmHg 59%
    11:00 +13°C° 0 mm 0 mps 765 mmHg 55%
    12:00 +14°C° 0 mm 0 mps 765 mmHg 51%
    13:00 +18°C° 0 mm 1 mps 765 mmHg 46%
    14:00 +18°C° 0 mm 1 mps 764 mmHg 47%
    15:00 +18°C° 0 mm 1 mps 764 mmHg 48%
    16:00 +18°C° 0 mm 1 mps 764 mmHg 49%
    17:00 +15°C° 0 mm 1 mps 764 mmHg 55%
    18:00 +13°C° 0 mm 1 mps 763 mmHg 62%
    19:00 +11°C° 0 mm 1 mps 763 mmHg 68%
    20:00 +11°C° 0 mm 1 mps 763 mmHg 69%
    21:00 +10°C° 0 mm 1 mps 763 mmHg 71%
    22:00 +10°C° 0 mm 1 mps 763 mmHg 72%
    23:00 +10°C° 0 mm 1 mps 763 mmHg 72%

    27 February, Wednesday

    Time Temperature Precipitation Wind Pressure Humidity
    00:00 +10°C° 0 mm 1 mps 763 mmHg 73%
    01:00 +9°C° 0 mm 1 mps 763 mmHg 73%
    02:00 +9°C° 0 mm 1 mps 763 mmHg 73%
    03:00 +9°C° 0 mm 1 mps 762 mmHg 74%
    04:00 +9°C° 0 mm 1 mps 762 mmHg 74%
    05:00 +8°C° 0 mm 1 mps 762 mmHg 74%
    06:00 +8°C° 0 mm 1 mps 761 mmHg 75%
    07:00 +8°C° 0 mm 1 mps 761 mmHg 75%
    08:00 +10°C° 0 mm 1 mps 761 mmHg 70%
    09:00 +11°C° 0 mm 1 mps 761 mmHg 65%
    10:00 +13°C° 0 mm 1 mps 761 mmHg 60%
    11:00 +14°C° 0 mm 1 mps 760 mmHg 55%
    12:00 +16°C° 0 mm 1 mps 760 mmHg 50%
    13:00 +17°C° 0 mm 2 mps 759 mmHg 45%
    14:00 +17°C° 0 mm 2 mps 759 mmHg 45%
    15:00 +17°C° 0 mm 2 mps 758 mmHg 46%
    16:00 +17°C° 0 mm 2 mps 757 mmHg 47%
    17:00 +15°C° 0 mm 2 mps 757 mmHg 52%
    18:00 +13°C° 0 mm 2 mps 757 mmHg 57%
    19:00 +11°C° 0 mm 1 mps 757 mmHg 62%
    20:00 +11°C° 0 mm 1 mps 757 mmHg 64%
    21:00 +9°C° 0 mm 2 mps 757 mmHg 66%
    22:00 +8°C° 0 mm 2 mps 756 mmHg 68%
    23:00 +8°C° 0 mm 2 mps 756 mmHg 73%
    Show more